Wind_Speed
56 57 59 57 55 54 56 56 52 50 46 41 42 43 40 41 44 47 51 51 50 54 58 60 59 52 46 45 46 48 51 52 53 54 52 50 48 47 48 48 45 41 38 37 37 36 37 37 37 37 36 35 35 35 34 32 31 32 32 33 32 33 33 31 31 31 30 30 30 30 30 30 31 32 31 30 30 29 29 28 27 26 27 27 27 28
57 58 58 56 52 50 53 55 55 56 54 49 48 46 43 40 41 41 45 48 48 50 54 56 61 60 53 49 46 47 51 52 52 53 52 50 47 45 45 46 44 41 38 37 37 37 37 37 38 38 37 36 35 35 34 33 32 32 33 32 32 33 33 32 32 33 32 31 31 32 32 32 33 33 32 32 32 32 31 30 30 30 30 30 30 31
58 59 55 53 52 51 52 54 56 56 56 55 51 50 49 43 40 40 40 44 46 48 52 54 59 62 60 57 52 48 50 53 54 54 52 51 47 44 44 44 43 41 38 37 38 38 38 38 38 39 38 37 36 36 35 35 34 34 33 32 32 33 33 33 34 34 32 32 33 34 33 33 33 33 32 32 32 32 32 32 33 33 33 34 34 34
58 57 53 51 52 53 53 55 58 57 58 58 53 52 52 49 46 43 39 41 42 44 50 53 56 60 60 60 57 52 50 51 55 56 54 53 49 44 42 43 43 42 40 38 38 39 40 40 40 40 40 39 39 38 38 37 36 35 34 34 34 35 35 35 35 34 33 33 35 35 34 33 33 32 31 30 31 31 31 33 34 35 35 36 36 35
54 54 52 50 51 53 54 56 58 59 60 60 59 56 54 52 52 48 43 44 43 43 47 51 57 61 59 59 58 56 55 54 54 57 57 55 53 47 44 45 45 44 44 43 42 42 42 42 42 42 42 41 41 41 40 39 38 37 36 37 37 38 37 36 35 35 35 36 36 35 34 33 32 31 31 30 29 30 30 32 33 34 35 35 35 34
52 51 50 50 51 53 54 55 56 58 59 59 61 60 57 53 52 52 50 49 50 48 46 47 56 62 60 60 60 57 58 57 55 57 58 57 55 51 48 48 48 47 46 46 45 45 45 45 45 46 45 44 43 43 43 42 42 41 40 40 40 40 39 38 38 38 38 38 38 37 36 35 34 33 33 32 31 31 32 32 33 33 33 33 32 32
52 51 50 50 51 52 53 54 54 56 58 59 59 59 60 58 55 56 55 53 54 53 49 49 54 60 60 60 62 60 60 60 58 58 58 57 57 55 52 51 51 51 50 48 47 47 47 47 47 48 48 47 46 45 45 45 45 45 45 44 43 43 42 41 41 41 41 41 40 40 39 38 38 37 35 35 34 35 35 35 34 34 34 33 33 33
50 51 52 51 51 51 51 51 51 53 57 59 57 55 58 61 60 60 59 58 58 56 56 56 54 58 61 58 57 60 62 63 63 60 58 58 58 57 56 54 55 55 55 54 53 52 50 49 49 49 50 50 49 48 48 49 49 49 48 48 46 46 45 44 44 44 44 44 43 43 43 42 41 40 39 38 39 38 38 38 37 36 36 36 35 35
48 50 52 53 53 53 50 47 47 51 55 56 55 53 54 58 60 60 60 61 62 61 62 61 56 59 64 59 53 55 59 62 62 62 61 61 61 61 60 59 59 59 59 59 59 58 57 56 54 52 51 52 52 53 52 52 52 52 51 50 50 49 48 48 47 47 47 47 47 47 47 46 45 45 43 43 42 41 41 40 39 40 40 39 39 39
48 48 50 52 54 54 50 46 45 48 50 51 53 53 52 54 58 58 58 59 61 63 64 63 60 62 64 60 54 54 57 59 59 60 62 63 63 64 64 64 64 63 64 63 63 62 61 61 60 58 56 55 55 55 56 56 55 55 54 53 53 52 52 51 51 50 50 50 50 50 50 50 50 49 48 47 45 44 44 44 43 43 43 43 43 43
47 46 47 50 52 53 52 49 48 47 47 47 50 52 52 53 55 56 56 54 55 62 66 64 63 65 66 62 57 55 56 55 56 58 60 62 63 64 65 66 67 67 68 68 67 66 65 64 63 62 61 60 59 58 58 58 59 59 58 58 57 56 55 55 54 54 54 53 54 54 54 54 54 53 52 51 49 48 48 47 47 47 47 47 47 47
45 45 45 47 49 51 52 53 53 51 49 47 47 49 52 52 52 55 56 53 53 59 64 64 62 66 70 67 61 58 55 53 54 56 58 59 59 60 62 64 66 67 68 69 69 69 67 65 64 64 64 63 63 63 62 61 62 62 63 63 62 61 60 59 58 58 58 57 57 57 58 58 58 57 56 55 53 53 52 52 52 51 51 51 51 51
42 42 42 43 46 48 50 52 53 52 51 50 48 48 49 50 50 53 57 58 59 61 63 63 60 61 68 70 64 59 57 55 55 55 56 57 57 57 57 59 61 63 66 67 68 68 68 66 63 63 64 65 65 65 65 65 65 66 66 67 66 66 66 66 65 63 62 61 61 60 61 61 61 61 60 59 58 58 57 57 57 56 56 56 55 55
39 40 40 41 42 44 46 48 50 51 52 52 52 51 51 50 50 52 53 55 59 61 61 61 61 60 65 69 66 61 61 62 59 56 56 58 58 57 56 56 57 59 61 64 65 66 66 65 63 61 61 63 65 66 67 68 69 69 70 70 70 70 71 72 71 70 68 67 65 64 63 64 64 65 64 64 63 62 62 62 62 61 61 61 60 60
35 38 39 41 41 41 42 44 45 48 50 51 51 52 52 51 51 51 51 52 54 54 55 57 59 62 63 65 66 64 66 67 64 62 61 60 59 58 58 58 58 58 60 62 63 65 66 66 66 64 62 61 63 65 68 70 72 73 73 74 74 74 75 76 76 75 74 73 72 71 69 69 69 69 68 68 67 67 66 66 66 66 66 65 65 64
34 34 34 37 40 41 41 41 41 44 47 48 48 51 53 52 52 53 54 55 54 54 56 57 59 59 59 61 61 62 66 67 66 66 65 63 62 62 61 60 60 61 61 62 64 65 66 67 67 66 65 63 62 63 65 69 71 74 76 77 77 78 78 78 78 78 78 78 78 77 76 75 74 73 73 72 72 71 71 70 70 70 69 69 69 69
34 33 31 32 35 37 40 41 42 43 44 45 47 49 49 48 49 53 55 55 56 60 61 60 60 60 60 62 61 61 64 65 65 66 66 65 66 66 65 64 64 64 64 64 64 65 65 65 66 65 65 64 63 63 63 64 68 71 74 77 78 79 80 80 80 80 80 80 80 80 80 80 79 78 77 77 76 75 75 74 74 73 73 72 72 72
33 33 33 33 32 33 36 39 41 43 44 45 46 46 46 47 48 49 51 52 54 59 61 59 60 59 59 63 63 61 62 63 64 66 66 66 68 69 68 67 67 67 67 66 66 66 66 66 66 66 66 66 66 65 64 63 64 66 69 72 75 77 78 78 78 77 78 80 80 81 81 81 81 80 80 79 79 79 78 77 77 76 76 75 75 75
35 36 35 35 36 36 36 38 40 41 43 44 45 44 46 49 49 48 49 50 51 54 56 55 56 56 56 58 58 56 56 57 59 62 64 65 67 70 71 71 70 69 69 70 69 68 68 68 69 69 69 69 68 68 67 66 66 65 66 68 70 72 74 75 74 73 73 75 77 79 80 81 81 81 81 80 80 80 79 79 78 78 77 77 76 76
37 39 38 36 37 38 39 38 38 39 41 42 43 44 46 47 48 50 51 51 51 53 54 53 53 53 52 51 50 51 53 54 55 57 60 62 63 66 68 71 72 71 70 70 71 71 71 71 71 72 72 72 72 71 71 70 69 69 69 69 70 71 71 72 71 70 70 71 73 74 75 77 78 79 80 80 80 79 79 79 78 78 77 77 76 76
33 37 39 38 37 39 40 39 39 39 40 41 41 43 45 44 45 49 51 52 53 55 56 56 57 55 52 50 49 48 51 54 54 55 57 59 60 61 63 65 68 70 70 69 69 71 73 73 72 73 74 75 75 75 75 75 74 73 73 73 73 73 74 73 73 72 72 72 72 72 72 73 74 75 76 77 78 78 78 78 77 77 77 77 76 76
31 32 35 37 38 38 39 40 41 41 42 42 42 42 43 44 45 47 49 49 50 54 57 59 60 58 55 55 55 53 52 54 55 56 57 59 60 60 60 61 62 64 67 67 67 67 70 72 72 72 73 74 76 77 77 77 77 76 76 76 77 77 77 77 76 75 75 74 74 74 74 74 74 74 74 74 75 75 75 76 76 77 77 77 76 76
37 35 34 35 36 36 37 39 41 42 43 44 45 44 44 46 48 48 49 47 45 48 51 55 60 59 55 55 56 55 55 56 58 60 59 60 62 61 60 61 61 61 63 65 66 65 66 67 70 71 72 73 73 74 75 76 76 76 76 76 77 78 79 79 80 80 79 78 77 77 77 77 77 77 77 76 76 75 75 76 76 76 77 76 76 76
39 40 39 38 38 37 37 38 39 41 43 44 46 47 47 49 50 51 52 51 49 47 45 49 56 57 54 54 55 55 55 55 57 60 61 62 64 65 64 64 65 64 64 65 66 67 67 67 68 69 71 72 73 73 74 74 74 75 76 76 76 76 77 79 80 81 82 81 81 81 81 81 81 81 80 80 79 78 78 78 78 78 78 77 77 77
35 38 40 41 41 41 41 41 40 40 41 44 46 47 49 50 51 53 54 55 58 56 51 51 55 53 50 51 53 54 56 57 56 57 59 61 63 65 65 65 66 66 67 66 66 67 68 69 68 68 68 69 70 71 72 73 74 75 76 76 76 76 76 78 79 81 82 83 83 83 82 83 83 84 84 83 83 82 82 81 81 81 81 80 80 80
31 33 35 37 38 39 41 44 45 44 44 44 45 47 49 50 52 55 57 59 62 61 59 60 61 56 52 52 54 54 55 57 58 58 59 60 62 64 65 66 66 65 66 65 62 61 62 64 66 66 65 65 65 64 63 64 65 66 67 67 67 68 69 71 73 76 78 81 82 83 83 84 84 85 86 86 86 86 85 85 85 85 84 84 84 83
28 30 32 34 35 36 37 40 43 47 48 48 48 48 49 50 52 55 58 61 63 64 66 67 65 62 58 54 55 55 54 53 54 55 56 58 60 62 63 64 66 67 66 64 61 59 59 60 61 62 63 62 62 61 60 59 58 57 57 57 57 58 59 60 63 65 68 71 74 76 78 80 81 83 83 84 85 85 86 86 87 87 87 87 87 86
27 29 32 34 35 36 37 38 40 44 47 48 50 50 51 51 53 55 58 59 60 65 70 69 67 69 67 60 57 56 54 53 52 51 52 55 58 60 61 62 64 66 67 66 65 65 64 64 63 61 61 60 59 59 60 62 62 60 59 59 58 59 60 61 63 63 64 66 69 71 73 74 76 77 78 79 80 81 82 83 84 85 86 86 86 86
28 30 32 35 36 37 38 39 41 44 46 47 49 50 51 52 53 56 59 59 60 65 69 66 67 71 71 69 66 64 61 61 61 60 60 61 62 64 65 67 67 68 68 67 67 67 68 69 68 66 64 63 63 62 61 61 61 63 65 66 66 65 65 66 67 68 68 70 71 72 73 74 75 75 75 76 76 78 79 80 81 83 83 84 84 84
33 33 34 35 37 38 38 40 43 46 49 50 51 51 52 52 54 56 59 60 62 66 67 66 68 70 69 70 72 72 72 73 74 74 73 72 71 70 70 71 73 74 74 73 71 70 69 70 72 73 72 70 69 68 67 65 62 61 63 66 68 68 69 70 70 70 70 71 72 72 73 73 74 74 74 73 73 74 75 76 77 79 80 81 82 83
37 38 39 40 41 41 42 44 45 47 49 52 53 54 55 56 56 58 59 59 60 62 63 63 68 71 69 68 71 74 76 78 80 82 82 80 79 78 77 76 75 76 78 79 79 77 76 75 75 77 77 77 76 74 73 74 72 70 69 69 69 69 70 71 71 71 71 72 73 75 75 75 74 74 73 72 71 72 73 74 75 76 77 79 80 81
31 34 36 40 44 46 47 47 47 49 53 55 56 56 57 59 59 59 59 59 61 63 64 65 69 70 69 69 72 74 76 78 80 82 83 84 84 85 85 84 82 80 80 81 81 82 81 81 80 79 79 80 80 80 79 79 80 81 81 80 77 75 73 71 70 69 71 73 73 72 74 74 75 77 77 76 76 75 75 75 75 75 77 78 79 80
25 27 28 31 36 39 41 41 42 47 50 49 51 54 55 57 59 60 61 61 62 64 66 68 69 70 70 71 74 76 77 78 79 81 83 84 84 84 85 87 87 87 86 86 86 86 85 84 84 84 83 82 82 82 83 83 83 83 83 82 82 81 81 80 77 75 76 78 76 73 72 72 72 75 78 80 82 82 81 79 78 78 79 80 80 81
25 26 27 29 32 34 35 33 35 39 36 33 37 43 46 48 52 55 56 57 59 62 65 67 69 70 71 73 75 76 77 77 78 81 82 83 83 84 85 85 86 87 88 89 90 90 91 90 90 89 89 88 87 87 86 86 86 86 86 85 83 83 84 85 86 85 84 85 84 83 82 80 79 79 79 80 81 83 85 85 84 82 82 82 83 84
27 28 30 32 34 36 36 35 37 35 28 31 37 39 40 43 46 48 50 51 54 58 61 64 66 68 70 71 73 75 76 77 78 81 82 83 84 85 86 86 86 86 87 88 89 91 92 93 94 95 94 94 94 94 93 92 91 91 91 91 90 89 88 88 88 89 89 89 90 91 91 91 90 88 87 86 85 86 89 90 88 86 84 83 83 84
29 31 33 34 37 39 39 40 42 37 33 39 43 41 42 45 48 50 52 53 55 58 59 61 63 64 66 67 69 71 72 73 75 78 81 83 85 87 87 88 88 88 88 88 89 90 90 90 92 93 95 96 97 97 97 97 97 97 97 96 96 95 95 94 93 92 92 92 92 93 94 94 93 91 90 90 90 91 91 91 90 89 88 87 86 85
30 31 34 36 37 39 40 42 44 43 43 45 46 45 47 49 51 55 57 58 59 60 61 63 64 64 65 66 68 69 70 69 70 72 75 78 81 84 86 88 89 90 90 90 90 90 91 91 91 91 92 92 93 95 95 96 97 98 99 100 100 100 100 99 99 98 98 97 97 97 97 97 96 95 94 93 93 93 93 92 91 91 91 90 90 89
31 33 35 38 39 39 42 45 46 47 48 48 48 48 49 51 55 59 61 63 63 63 64 66 67 68 69 69 70 71 72 72 71 70 71 74 76 78 80 82 85 87 89 90 90 90 91 91 91 91 91 91 91 91 91 92 93 93 94 95 97 98 98 98 99 99 99 100 100 100 100 100 100 99 99 99 98 97 97 96 95 94 94 93 92 92
33 34 36 39 40 41 44 47 50 51 52 51 52 52 52 54 58 61 64 67 66 66 68 70 71 73 73 74 74 74 75 76 75 72 72 74 75 75 76 77 78 80 82 85 86 87 87 88 88 89 89 90 90 89 89 89 89 89 90 91 92 93 94 94 94 95 95 96 97 98 99 100 100 100 100 99 99 99 98 98 97 97 96 96 95 94
34 36 37 40 41 42 46 50 52 53 54 55 56 55 55 57 61 63 67 69 68 69 71 73 75 76 77 77 78 78 78 79 78 76 74 75 75 75 76 76 76 75 76 78 80 82 82 83 84 84 84 85 86 87 87 87 86 86 85 85 85 86 87 88 88 89 89 89 89 89 89 90 92 94 95 95 95 95 94 94 94 94 95 95 95 96
36 37 39 41 43 45 49 52 55 55 55 57 58 59 60 61 64 67 70 71 71 72 74 76 78 80 80 81 81 81 81 82 82 80 79 78 78 78 77 77 76 75 74 74 75 77 77 77 78 78 78 79 80 81 81 81 81 81 77 74 73 75 77 79 81 82 84 84 84 84 83 84 85 85 86 88 89 89 89 89 89 89 90 91 91 92
38 40 42 43 46 48 51 54 57 58 57 58 60 63 65 67 69 72 74 74 75 76 77 79 82 83 84 85 85 85 84 84 83 83 82 81 81 80 79 79 78 77 76 75 74 74 73 73 72 72 72 73 73 74 74 74 75 76 74 72 70 70 71 73 75 76 78 80 81 82 82 82 82 82 81 81 81 82 83 84 84 85 85 86 86 87
41 43 45 46 49 51 53 56 59 59 59 62 65 67 68 71 75 77 78 79 80 81 82 84 85 86 87 87 87 87 87 85 84 84 83 82 82 81 80 79 79 78 76 75 75 74 73 71 70 69 69 69 70 70 70 69 70 71 71 71 70 69 68 69 70 71 72 73 74 75 76 76 77 77 76 76 75 75 76 77 78 79 80 81 82 82
45 47 48 50 53 55 56 59 61 61 62 66 70 72 73 75 78 81 83 84 84 85 86 87 87 88 88 88 88 88 87 85 84 83 83 82 82 81 80 79 79 78 76 76 75 75 75 74 72 69 68 67 67 67 66 66 66 66 67 68 69 68 68 67 67 67 67 67 67 67 68 68 69 69 69 69 69 69 70 70 71 72 73 74 75 76
47 50 53 55 56 58 61 63 63 63 65 69 73 75 77 79 81 84 86 87 88 89 89 90 90 90 89 90 90 89 88 86 84 82 81 81 80 80 79 79 78 77 76 76 76 75 76 76 75 73 71 69 69 68 67 66 66 66 66 66 66 66 65 65 64 64 64 63 63 63 63 64 64 65 64 65 65 65 65 66 66 67 67 68 68 69
49 52 56 59 59 61 65 66 66 67 69 72 75 77 79 81 83 85 87 88 89 90 90 91 91 90 90 90 90 90 89 87 86 84 83 81 80 79 78 78 78 77 76 75 74 75 75 75 76 76 75 74 73 73 72 71 70 70 70 69 69 68 67 67 67 66 66 65 63 62 62 62 63 63 63 63 63 63 64 64 64 64 64 64 64 65
51 55 58 61 63 66 68 68 69 71 72 75 77 78 79 81 83 84 86 87 88 88 88 89 88 87 87 87 87 86 86 85 85 84 84 83 81 80 79 78 78 78 78 77 76 75 76 76 75 75 76 76 76 76 76 76 75 74 74 73 72 71 70 69 69 69 67 64 61 61 61 62 62 62 62 62 62 61 61 61 62 61 61 61 61 61
55 59 61 63 66 69 70 70 71 73 74 76 78 79 80 81 82 82 83 84 85 85 85 84 84 83 83 82 81 81 81 80 80 80 80 80 80 80 79 78 78 79 80 80 80 80 79 79 78 77 76 76 76 76 77 77 77 77 76 76 76 74 73 71 70 68 66 64 63 63 63 62 62 62 62 62 61 60 60 59 59 59 58 58 57 56
60 63 64 67 69 70 72 73 74 76 76 76 77 79 80 80 81 81 81 81 81 81 79 78 77 77 76 76 75 75 75 74 73 74 75 76 76 77 77 77 77 77 78 80 82 83 84 85 85 85 83 80 78 77 77 77 78 77 76 77 77 78 77 75 73 71 70 69 69 68 66 65 64 63 62 62 61 61 60 58 57 56 56 56 55 55
63 66 68 71 73 73 73 74 76 78 79 78 78 78 78 78 79 79 79 78 76 74 73 72 71 69 68 68 67 68 68 68 68 69 70 71 71 72 72 73 74 75 75 76 78 80 83 84 86 87 87 86 83 80 78 78 78 77 76 75 76 77 77 76 75 74 73 73 72 70 69 68 65 63 62 61 61 61 60 58 56 54 54 54 55 55
66 69 71 74 75 75 75 76 77 80 81 81 79 79 78 77 76 75 73 71 69 67 65 64 63 61 59 58 59 60 60 61 61 62 63 64 65 66 66 67 69 70 71 72 73 75 77 79 81 82 84 85 85 84 82 80 79 78 76 74 74 74 74 72 71 71 71 70 69 68 68 67 65 63 62 61 61 61 60 59 57 55 55 55 55 55
Wind_Direction
227 228 228 230 230 230 234 235 233 235 235 231 232 234 233 232 234 238 241 240 240 244 245 244 244 239 229 226 228 228 230 234 236 236 236 236 237 238 241 244 245 243 241 243 244 244 246 246 246 245 243 241 239 239 239 238 238 239 240 240 240 240 239 238 239 241 241 242 243 244 244 243 244 246 247 250 251 253 254 254 254 254 253 252 252 252
227 228 229 231 232 228 229 233 235 237 238 237 235 235 234 231 231 235 239 239 238 240 243 244 244 242 236 232 232 232 232 233 235 237 236 236 237 238 239 242 245 245 244 244 245 245 246 247 249 249 248 245 242 242 241 240 239 239 238 237 237 239 239 239 240 242 242 243 244 245 244 243 243 244 246 248 250 252 254 257 258 259 258 258 257 255
226 229 230 230 229 226 225 228 232 234 236 240 241 239 237 235 234 234 236 239 238 239 240 242 244 244 241 238 235 235 235 234 234 235 236 237 238 239 241 242 245 246 247 247 247 248 248 247 248 249 250 250 248 245 243 241 240 239 238 237 237 238 237 238 239 241 242 243 244 244 244 244 244 245 245 246 247 250 252 254 255 256 258 259 258 258
228 230 230 228 226 227 226 225 228 231 233 236 240 241 239 239 239 235 234 237 238 239 239 239 241 242 242 241 238 237 239 237 234 233 234 236 237 239 242 244 244 245 245 245 246 249 251 251 249 247 247 248 249 248 245 243 241 240 240 240 240 239 238 237 237 239 239 241 242 243 244 244 245 246 246 246 247 248 249 249 251 253 255 257 259 261
229 230 228 228 227 227 227 226 227 230 233 234 236 240 241 241 241 238 236 237 238 237 237 236 238 240 241 241 239 238 239 240 237 234 232 233 234 236 240 243 243 243 243 243 243 247 251 253 254 252 249 246 246 248 248 247 246 244 243 242 241 241 240 238 238 239 239 240 241 243 244 244 246 247 248 248 248 248 247 247 249 250 252 255 258 261
228 228 227 228 228 227 228 229 229 231 234 235 235 238 242 243 243 242 242 243 242 238 235 236 240 240 239 239 239 237 238 240 239 237 234 232 232 234 237 242 245 245 245 246 245 248 251 253 255 256 254 251 247 246 248 249 250 249 248 245 244 243 242 241 241 241 241 241 243 244 245 246 246 246 247 248 249 249 249 249 249 250 252 254 257 259
227 228 227 227 228 228 229 229 230 231 234 236 237 237 240 243 244 245 246 247 246 242 238 239 244 243 237 237 240 240 238 239 241 240 237 234 234 234 236 241 245 248 249 250 250 249 251 252 254 256 256 256 253 249 248 247 248 249 249 248 248 247 246 244 244 244 245 245 245 246 246 247 247 247 247 248 248 249 251 252 252 253 255 256 257 258
228 228 228 228 229 229 230 230 230 232 233 236 238 237 237 241 243 245 246 248 248 247 244 243 246 245 238 236 239 239 239 239 240 241 240 239 239 238 240 242 245 247 249 250 252 252 252 252 254 254 256 257 256 254 251 248 247 247 248 249 248 248 248 249 248 248 248 248 249 249 248 248 248 248 247 247 248 249 251 253 254 255 256 257 258 259
229 228 228 228 229 230 232 233 232 232 233 235 237 237 236 239 242 244 245 247 249 250 249 247 247 247 242 237 233 234 239 239 238 240 242 241 242 242 243 244 245 247 248 249 250 252 253 254 255 254 254 255 256 256 254 251 249 248 248 248 248 248 249 250 250 250 250 250 251 251 251 251 250 250 249 248 248 249 251 253 254 255 256 257 258 258
229 228 228 229 230 230 231 230 229 230 231 231 234 237 237 237 240 243 245 247 249 250 250 249 250 251 245 237 232 232 236 240 239 239 240 242 243 244 245 246 246 246 247 249 249 250 251 252 254 254 253 252 253 254 254 254 253 252 251 250 249 248 249 250 250 250 251 252 253 253 254 254 253 253 252 251 250 251 253 254 255 256 256 256 257 258
229 228 228 229 231 231 229 228 228 229 231 230 232 236 238 238 238 242 245 247 248 250 250 250 252 255 249 239 235 235 234 237 238 239 240 241 243 244 246 246 247 247 248 249 250 251 251 251 251 252 253 252 251 251 251 252 253 254 253 252 251 250 249 250 251 251 251 251 252 254 255 255 256 256 256 255 255 255 255 255 256 257 257 257 257 258
229 228 228 229 231 232 231 231 232 233 234 234 233 235 238 240 240 241 243 244 245 248 251 251 251 255 253 243 238 239 238 237 237 238 240 241 242 244 245 246 247 248 249 250 251 252 253 254 252 252 251 252 252 252 251 250 251 251 252 253 253 252 252 252 252 252 252 253 253 254 256 257 258 258 259 259 259 260 259 258 258 257 257 257 258 259
228 228 228 229 230 232 232 233 234 235 235 235 234 234 237 239 241 242 243 244 246 249 252 253 253 254 255 250 244 242 244 245 243 240 239 241 243 244 244 246 247 248 249 250 252 253 254 255 255 253 252 251 252 253 253 252 251 250 250 251 252 252 253 253 253 252 252 253 255 256 257 259 260 261 261 261 261 262 262 262 261 260 260 260 259 260
227 228 228 229 230 232 234 234 235 236 236 236 237 238 239 240 240 243 245 246 248 250 252 253 254 254 255 254 250 246 249 253 251 247 245 244 244 245 246 247 248 249 249 250 252 253 254 255 255 254 253 252 252 252 252 253 253 252 251 251 251 251 252 253 253 253 254 254 255 257 259 260 261 261 262 262 262 262 263 262 262 262 262 262 262 262
227 229 230 231 232 233 236 236 237 237 237 237 239 240 240 240 240 243 245 247 249 251 251 251 252 254 255 256 254 251 252 256 255 253 253 250 248 247 247 248 248 248 249 250 250 251 252 253 254 254 253 252 253 252 252 252 252 252 252 252 252 252 252 253 254 254 255 256 256 258 259 261 262 262 262 262 262 262 261 261 262 262 262 262 263 264
225 226 229 230 231 232 234 236 236 236 237 237 238 240 241 241 243 245 246 248 251 251 250 250 251 255 257 257 256 253 253 256 257 256 257 256 254 251 249 248 248 249 249 251 251 251 252 253 254 254 253 253 253 254 254 253 252 252 252 252 253 253 254 254 255 256 257 257 258 259 260 261 262 263 263 262 262 262 261 261 261 261 261 262 262 263
223 223 225 227 228 228 230 233 235 235 236 235 235 239 242 243 244 246 247 248 250 251 250 251 252 255 256 256 256 255 253 256 258 259 259 258 257 257 254 252 250 251 252 252 253 253 254 254 255 255 255 254 253 253 254 255 254 254 253 253 254 254 255 256 256 257 258 258 259 260 261 261 262 263 263 263 263 263 263 263 263 262 262 262 262 263
222 222 224 226 227 228 228 231 234 235 236 235 235 237 240 241 241 243 247 248 248 251 252 252 252 253 254 255 256 256 255 256 259 260 261 261 259 258 258 256 254 254 254 254 254 254 255 255 255 255 255 255 254 253 253 252 254 254 255 255 255 255 256 257 258 258 259 259 260 260 261 261 262 263 263 263 264 264 264 264 265 265 264 264 264 264
228 227 228 231 232 233 232 232 234 236 237 238 237 237 238 241 241 241 244 246 247 250 252 253 253 252 252 253 254 255 255 256 257 258 259 260 259 259 258 258 258 256 255 255 255 255 256 256 256 256 255 255 255 254 253 252 251 252 253 254 255 256 257 257 258 259 260 260 261 261 262 262 263 263 263 264 264 264 264 265 265 265 266 266 266 266
232 231 231 233 234 234 234 235 236 237 239 240 240 239 239 241 244 245 245 246 248 250 252 253 253 252 252 252 253 253 253 253 254 255 256 258 258 259 259 259 260 260 259 257 257 257 257 257 258 259 258 258 257 257 256 255 253 252 252 253 254 255 255 256 256 257 258 259 260 261 262 263 263 264 264 265 265 265 265 265 265 265 266 266 266 266
231 230 230 232 233 233 233 234 236 238 240 241 241 242 241 241 244 247 248 248 250 252 254 255 255 254 253 253 251 250 251 252 253 254 255 257 258 258 259 260 260 261 262 261 260 259 259 258 258 259 259 259 259 259 258 258 257 255 254 254 254 254 255 255 255 256 256 256 257 258 259 260 262 263 264 264 265 265 265 265 265 265 266 266 266 267
230 231 230 231 233 234 236 236 236 238 240 240 241 242 242 241 242 245 248 248 251 254 255 257 258 256 256 256 254 251 250 251 253 254 254 256 258 258 259 259 259 259 260 262 262 261 261 260 260 259 259 259 259 259 259 259 258 258 257 256 256 256 256 257 257 257 257 257 257 258 258 258 259 260 261 262 263 264 264 265 266 266 266 266 266 267
236 236 234 234 234 235 238 239 238 240 242 242 242 242 242 242 242 244 246 245 248 252 254 256 258 256 253 254 255 254 252 251 252 253 254 254 256 257 257 258 258 258 258 259 260 261 261 261 261 261 261 260 260 260 260 260 259 259 258 258 257 256 256 257 257 258 258 258 258 258 258 259 259 259 259 260 261 262 263 264 265 266 266 267 267 267
241 242 241 241 239 238 240 242 242 243 244 245 245 244 244 244 244 245 246 245 245 247 249 253 255 254 252 252 252 253 253 251 250 251 252 253 254 255 256 257 258 258 258 258 258 258 259 259 259 260 261 261 261 262 262 262 261 261 260 259 258 257 256 256 256 257 258 258 258 258 259 259 260 260 260 260 261 261 262 263 264 265 266 266 267 267
242 244 244 245 245 243 243 244 245 247 248 247 248 247 247 248 247 247 247 248 249 247 246 249 251 251 251 252 251 251 253 253 251 251 252 252 253 254 255 258 259 259 260 260 260 258 258 258 259 259 259 260 260 261 262 262 262 262 261 261 261 260 259 258 257 256 256 257 258 258 259 259 259 260 261 261 261 262 262 262 263 264 264 265 266 266
244 245 245 246 246 246 245 245 247 249 251 251 250 250 251 251 251 251 250 250 251 250 248 249 251 250 249 251 253 253 254 255 254 254 253 252 253 253 253 256 258 259 259 260 261 260 258 257 258 257 257 256 257 257 258 258 258 259 261 261 261 262 261 260 259 258 257 256 257 257 257 258 258 259 260 261 261 262 262 262 263 263 263 263 264 264
244 245 246 246 246 246 247 248 249 250 251 252 252 253 253 253 253 254 253 252 253 254 251 250 253 253 250 249 251 252 252 253 254 252 252 251 252 252 251 252 253 255 256 256 256 255 256 257 257 256 255 255 254 254 254 253 253 254 256 257 258 259 261 261 260 258 257 256 255 255 256 256 257 258 258 259 260 260 261 261 262 262 262 262 263 263
243 244 246 247 247 247 248 250 252 253 253 252 252 253 253 255 255 255 256 256 256 257 255 252 253 255 253 248 247 246 246 248 249 248 248 249 250 251 252 252 251 251 253 253 253 252 253 254 254 254 254 253 252 251 251 251 251 251 251 252 253 253 256 259 259 258 259 258 257 257 256 256 256 257 257 257 258 259 259 260 260 261 262 262 262 262
250 249 249 250 250 251 253 253 254 255 255 255 254 253 254 256 258 258 259 259 259 261 260 257 256 256 256 254 250 248 247 248 249 250 251 251 251 251 251 251 250 249 249 250 251 251 252 253 251 249 249 250 249 248 246 246 247 248 248 249 250 250 252 255 256 257 258 259 259 259 258 257 256 256 256 257 257 258 258 259 260 260 261 261 262 262
257 256 255 255 254 255 257 258 257 257 258 257 257 257 256 257 259 261 261 261 262 264 265 264 261 259 259 258 256 253 252 252 253 253 253 253 252 251 250 250 250 250 249 249 249 250 251 252 252 249 247 247 247 247 246 244 242 243 245 248 250 252 252 253 254 256 257 258 258 259 259 259 257 256 256 257 257 258 258 259 260 260 261 261 262 262
261 261 260 260 258 257 257 259 260 260 261 260 260 260 261 261 261 262 263 263 264 266 267 267 266 263 261 260 260 258 256 256 255 254 255 255 254 253 252 251 250 250 251 251 250 250 249 250 250 250 249 248 247 247 247 246 244 244 246 247 249 250 250 251 252 253 255 256 257 258 258 258 258 257 257 258 259 259 259 259 260 261 261 262 262 263
267 265 264 263 261 259 258 259 261 263 265 265 265 263 263 263 263 263 263 263 265 266 267 266 267 266 264 262 262 260 259 259 258 257 257 258 257 257 256 255 253 252 252 252 252 252 251 251 250 250 250 249 249 249 249 249 249 250 251 252 250 248 246 247 247 247 249 251 251 252 254 255 256 257 257 259 260 260 259 259 260 261 261 262 262 263
276 274 272 269 267 266 265 264 265 265 266 267 268 267 266 265 265 264 264 265 266 267 267 266 266 267 266 265 264 264 263 263 263 263 262 261 261 260 260 259 258 256 255 254 254 254 254 254 254 253 252 251 251 252 252 252 252 253 255 255 255 252 249 248 247 247 248 248 247 248 249 251 254 256 258 260 262 261 260 259 259 260 261 261 262 262
278 279 277 274 273 273 273 273 270 266 269 275 275 272 271 270 269 268 268 268 268 267 268 269 269 268 267 267 266 266 265 265 265 265 265 265 264 263 262 262 261 261 260 258 258 257 257 256 256 256 256 255 255 254 254 254 254 255 255 256 257 256 254 252 251 251 250 250 249 249 251 253 255 256 257 258 258 259 259 260 261 261 261 261 261 261
276 277 276 276 276 276 277 276 272 270 277 281 275 271 271 272 273 273 273 272 270 270 270 270 271 271 270 270 269 268 267 267 266 266 265 266 266 265 264 264 264 263 263 262 261 261 260 259 258 257 257 257 257 257 257 256 256 255 255 256 256 257 257 256 256 255 254 254 253 253 255 257 258 259 259 257 256 257 259 261 262 262 262 262 262 261
275 275 274 275 275 276 276 275 275 278 279 274 270 271 272 273 274 274 273 272 271 271 271 271 271 272 271 271 270 270 269 268 267 267 266 266 266 265 265 265 265 265 264 264 263 263 263 262 261 260 259 259 259 259 259 259 259 258 257 257 257 258 258 258 258 258 257 257 257 257 257 258 259 260 260 260 259 259 261 262 263 263 263 263 263 262
280 279 279 279 278 279 280 278 279 282 279 274 274 275 274 274 275 274 273 272 271 271 272 272 272 272 272 272 272 271 270 269 268 267 267 267 266 265 265 264 264 264 264 264 264 264 264 263 263 263 262 262 261 261 261 261 262 261 260 260 260 260 260 260 261 260 260 260 260 260 260 260 261 261 261 261 261 261 261 262 262 263 263 263 263 263
286 285 285 285 286 287 287 285 285 285 283 283 282 281 280 279 278 277 278 277 275 274 274 274 273 273 272 272 271 271 272 271 269 268 269 269 268 267 266 265 264 263 263 262 262 262 263 263 263 263 263 263 263 263 263 263 264 264 264 263 263 262 262 263 263 263 263 263 262 263 263 263 264 264 264 264 264 264 264 264 264 263 263 263 263 263
285 285 285 286 288 289 288 288 287 287 288 288 287 286 285 284 282 281 281 280 278 278 277 276 275 274 273 272 272 271 271 271 270 269 269 269 270 270 269 268 267 266 264 263 262 261 261 262 262 262 263 263 264 264 265 265 265 265 266 266 266 266 265 265 265 265 265 265 265 265 265 265 265 266 266 266 267 267 268 268 268 268 267 266 265 264
286 287 287 288 290 290 289 288 288 289 290 290 290 289 288 286 284 283 281 279 279 278 277 277 276 275 275 274 273 272 271 271 270 268 268 268 268 269 269 269 269 268 267 266 265 263 262 261 261 261 262 262 263 264 264 265 265 265 266 267 267 267 267 267 267 267 266 267 267 266 266 266 266 266 267 268 268 269 269 269 270 270 270 270 269 268
288 288 289 290 291 290 289 289 290 291 292 292 293 292 289 286 284 282 280 279 279 278 277 277 276 276 275 274 273 273 272 271 271 269 268 267 267 267 267 268 268 267 267 267 266 265 263 262 261 261 261 260 261 261 262 263 264 264 264 264 264 265 265 266 266 267 267 267 267 267 266 267 267 267 268 268 268 269 269 269 270 270 270 270 270 270
289 289 289 290 290 289 289 290 291 292 294 295 293 290 288 286 284 282 281 280 279 278 277 276 276 275 275 274 274 273 272 272 272 272 271 270 269 268 267 267 267 266 266 266 265 264 263 262 262 261 261 260 260 260 260 261 262 262 262 262 262 263 264 264 264 265 266 266 267 267 267 268 268 268 268 268 268 268 268 269 269 269 269 270 270 270
291 290 291 291 290 289 290 291 291 293 295 294 290 288 287 286 284 283 282 281 280 279 278 277 276 276 276 275 275 274 274 273 273 273 272 272 271 270 269 268 267 266 265 264 263 263 262 261 260 261 261 261 260 259 259 259 260 260 260 260 260 262 263 264 265 265 266 266 267 267 268 268 268 269 269 269 269 269 269 269 269 269 269 270 270 270
293 293 293 292 291 291 291 291 292 294 294 291 289 288 287 286 284 284 283 283 282 281 279 278 278 277 277 276 276 275 275 274 274 273 273 272 271 271 270 268 267 266 264 263 262 262 261 260 259 259 259 260 259 259 259 259 259 260 260 260 260 261 263 264 265 266 266 267 267 267 268 268 268 268 269 269 269 269 269 269 270 269 270 270 270 270
295 295 294 292 292 293 292 292 293 293 292 290 289 289 288 288 287 285 285 284 284 283 281 280 279 278 277 277 276 275 275 274 273 273 272 271 270 269 268 268 267 265 264 263 261 260 259 259 258 257 257 257 258 259 260 260 260 260 260 260 260 261 262 264 265 266 266 266 267 267 268 268 269 269 269 269 269 270 270 270 270 271 271 271 271 270
297 296 294 294 294 293 293 293 294 294 293 292 291 291 290 289 288 286 285 285 284 284 283 282 281 280 279 278 277 277 276 275 274 273 271 270 268 267 266 265 264 263 263 261 259 258 257 257 257 256 256 256 257 258 260 260 260 260 259 259 260 261 263 264 265 266 266 266 267 268 268 269 269 270 270 270 271 271 271 271 272 272 272 272 273 273
297 294 293 294 294 293 294 296 296 296 296 294 293 292 291 290 288 287 286 285 284 283 282 282 281 280 280 279 278 277 276 276 275 274 273 271 269 267 265 264 262 260 259 258 257 255 255 256 257 256 256 255 255 256 257 259 260 260 260 260 260 261 263 264 264 265 265 264 266 268 269 269 270 270 271 271 272 272 273 273 272 272 273 273 274 274
297 294 294 294 294 295 298 299 299 298 297 296 295 294 292 290 289 287 286 285 284 283 282 282 281 281 280 279 278 277 276 275 275 274 273 271 270 268 267 265 263 260 259 257 255 254 254 256 257 258 258 256 255 255 256 257 259 260 261 261 261 262 262 262 262 262 262 262 265 268 270 270 270 271 271 272 273 273 273 273 273 273 273 273 273 273
297 296 296 296 297 299 301 301 300 299 298 296 295 294 293 291 289 287 286 285 284 283 282 282 281 281 280 280 279 278 277 276 275 273 272 271 270 269 268 266 265 263 261 259 257 256 255 256 257 259 260 259 258 258 257 257 258 260 261 262 262 262 263 263 262 262 263 264 267 269 270 270 270 270 271 271 272 273 273 273 272 272 272 272 272 272
298 298 299 300 302 304 304 303 301 300 299 298 297 295 293 291 289 288 287 286 285 284 283 282 281 281 281 281 280 279 278 277 275 274 274 273 272 271 269 268 267 265 264 262 260 258 257 257 257 258 259 259 259 259 259 258 258 259 260 261 262 262 263 264 265 265 266 266 267 268 268 268 269 269 269 270 270 271 273 273 271 270 270 272 274 275
299 301 302 303 305 306 306 304 302 301 301 301 299 297 294 292 291 290 289 288 287 286 286 285 284 283 282 282 281 280 278 277 276 275 275 275 274 273 271 270 268 267 266 264 263 261 259 258 258 258 258 258 258 258 258 258 258 257 258 259 260 261 262 263 264 265 266 267 267 266 266 266 267 267 268 268 268 268 270 271 271 270 270 273 275 277
Height
5681 5684 5688 5695 5705 5713 5715 5719 5723 5723 5724 5727 5727 5727 5730 5732 5736 5739 5741 5745 5747 5747 5752 5755 5758 5762 5768 5771 5773 5775 5775 5777 5779 5781 5784 5786 5788 5791 5792 5793 5795 5798 5801 5802 5803 5804 5804 5805 5806 5806 5807 5808 5809 5810 5811 5812 5813 5814 5815 5815 5816 5817 5817 5818 5818 5818 5819 5819 5820 5820 5821 5822 5821 5821 5822 5823 5824 5824 5825 5825 5825 5826 5825 5825 5826 5825
5676 5677 5685 5696 5705 5708 5709 5714 5717 5717 5720 5721 5721 5723 5726 5728 5733 5736 5736 5739 5742 5742 5746 5750 5751 5755 5761 5765 5769 5771 5772 5774 5776 5778 5780 5783 5785 5787 5789 5790 5792 5795 5797 5798 5799 5800 5801 5801 5802 5803 5804 5805 5806 5806 5807 5808 5809 5810 5810 5811 5813 5813 5813 5814 5815 5814 5815 5816 5816 5816 5816 5817 5817 5817 5819 5820 5821 5821 5822 5822 5823 5822 5822 5822 5822 5822
5670 5675 5686 5694 5698 5699 5702 5708 5710 5712 5715 5715 5717 5720 5721 5726 5730 5731 5733 5735 5736 5737 5742 5744 5744 5748 5753 5758 5763 5766 5768 5770 5772 5774 5777 5779 5781 5784 5786 5787 5789 5791 5793 5794 5795 5795 5796 5798 5799 5799 5800 5801 5802 5803 5804 5804 5805 5805 5806 5808 5808 5809 5809 5810 5810 5810 5812 5812 5811 5811 5812 5812 5813 5814 5815 5817 5817 5818 5819 5820 5819 5818 5818 5818 5817 5818
5667 5676 5684 5686 5689 5693 5696 5700 5703 5706 5708 5711 5714 5715 5718 5723 5724 5726 5730 5731 5730 5732 5735 5737 5737 5740 5745 5751 5758 5763 5764 5766 5768 5771 5773 5775 5777 5780 5782 5783 5785 5787 5788 5790 5790 5790 5791 5792 5793 5795 5796 5798 5798 5799 5799 5800 5801 5802 5803 5804 5804 5804 5804 5805 5806 5807 5808 5807 5806 5807 5808 5808 5809 5811 5812 5813 5814 5815 5816 5816 5815 5814 5814 5813 5813 5814
5666 5675 5679 5680 5684 5687 5688 5692 5697 5700 5702 5707 5710 5712 5715 5718 5719 5723 5726 5724 5725 5725 5727 5730 5728 5731 5740 5744 5751 5758 5759 5760 5764 5766 5769 5770 5773 5775 5777 5778 5780 5781 5783 5784 5786 5786 5787 5788 5788 5789 5791 5793 5794 5795 5796 5796 5797 5798 5799 5799 5799 5799 5800 5801 5802 5803 5803 5802 5802 5803 5804 5805 5806 5807 5808 5809 5810 5811 5811 5811 5811 5811 5810 5810 5811 5811
5664 5670 5673 5676 5678 5679 5682 5687 5692 5695 5699 5702 5705 5709 5712 5713 5715 5718 5719 5719 5719 5719 5723 5725 5719 5723 5735 5736 5742 5752 5753 5755 5759 5760 5764 5767 5768 5770 5772 5774 5776 5777 5778 5779 5782 5783 5783 5784 5784 5784 5786 5787 5790 5792 5792 5792 5793 5793 5793 5794 5794 5795 5796 5797 5797 5797 5797 5798 5798 5799 5800 5801 5802 5803 5804 5805 5806 5806 5806 5806 5806 5806 5807 5807 5808 5808
5661 5665 5668 5670 5671 5674 5677 5682 5686 5690 5693 5696 5701 5707 5708 5708 5710 5712 5713 5712 5712 5715 5720 5718 5712 5717 5726 5729 5737 5745 5747 5752 5755 5756 5761 5764 5764 5765 5767 5769 5772 5773 5774 5775 5777 5778 5778 5779 5779 5780 5780 5781 5784 5786 5787 5788 5788 5788 5788 5789 5789 5790 5791 5792 5792 5792 5792 5793 5794 5795 5796 5797 5798 5799 5800 5801 5802 5801 5801 5802 5802 5803 5803 5804 5804 5804
5659 5661 5663 5665 5667 5669 5672 5677 5683 5686 5687 5691 5698 5701 5700 5703 5705 5705 5705 5704 5706 5711 5711 5710 5711 5711 5715 5726 5734 5736 5740 5747 5750 5752 5757 5759 5760 5761 5762 5764 5766 5767 5769 5771 5771 5772 5773 5773 5774 5775 5776 5776 5778 5779 5780 5782 5783 5783 5783 5784 5785 5785 5786 5787 5787 5787 5787 5788 5789 5789 5790 5792 5793 5794 5796 5796 5796 5797 5797 5797 5799 5799 5799 5800 5800 5800
5655 5655 5657 5659 5662 5664 5669 5676 5680 5680 5681 5688 5692 5692 5695 5698 5697 5697 5698 5698 5703 5703 5699 5705 5712 5706 5707 5723 5730 5728 5732 5740 5745 5749 5751 5753 5754 5755 5757 5758 5759 5761 5762 5764 5765 5766 5767 5767 5769 5770 5771 5771 5772 5772 5773 5775 5776 5777 5778 5779 5780 5780 5781 5781 5782 5782 5782 5782 5783 5784 5784 5785 5787 5788 5789 5791 5791 5792 5793 5794 5795 5795 5795 5795 5795 5795
5647 5649 5652 5654 5657 5661 5668 5672 5672 5673 5677 5683 5685 5686 5690 5691 5691 5693 5692 5695 5699 5692 5692 5704 5709 5702 5703 5715 5722 5722 5727 5734 5740 5742 5743 5746 5747 5747 5749 5750 5752 5754 5754 5756 5757 5759 5761 5761 5762 5763 5764 5766 5766 5767 5767 5768 5770 5771 5772 5773 5774 5775 5775 5775 5776 5776 5776 5776 5776 5777 5778 5779 5780 5781 5783 5785 5787 5788 5789 5789 5790 5790 5790 5790 5790 5790
5640 5645 5648 5650 5653 5657 5663 5665 5665 5668 5672 5677 5680 5681 5685 5684 5686 5689 5687 5692 5691 5681 5688 5702 5704 5700 5696 5705 5715 5718 5723 5730 5732 5734 5736 5738 5739 5739 5742 5742 5743 5745 5745 5747 5749 5751 5754 5755 5757 5757 5758 5760 5760 5761 5762 5763 5764 5764 5765 5766 5767 5768 5769 5769 5770 5770 5770 5770 5770 5770 5771 5772 5773 5775 5776 5778 5781 5783 5783 5784 5785 5785 5784 5784 5784 5784
5636 5640 5643 5647 5650 5653 5658 5659 5662 5665 5668 5673 5676 5678 5680 5679 5682 5683 5682 5686 5680 5676 5688 5698 5698 5692 5685 5696 5710 5713 5719 5725 5726 5727 5730 5731 5732 5733 5733 5734 5735 5736 5737 5739 5741 5744 5746 5748 5750 5751 5752 5753 5753 5754 5755 5756 5757 5757 5758 5759 5760 5762 5762 5762 5763 5763 5763 5763 5763 5764 5764 5765 5767 5769 5770 5772 5774 5776 5776 5777 5777 5778 5778 5778 5778 5778
5633 5637 5641 5644 5646 5649 5653 5655 5658 5661 5664 5668 5671 5673 5674 5675 5677 5676 5676 5677 5674 5677 5688 5691 5689 5682 5677 5692 5706 5711 5716 5718 5719 5723 5725 5725 5725 5725 5726 5728 5729 5729 5730 5733 5734 5736 5738 5740 5742 5743 5744 5745 5746 5746 5747 5748 5749 5750 5751 5752 5753 5755 5754 5754 5754 5755 5756 5756 5756 5757 5758 5760 5761 5762 5764 5765 5767 5768 5768 5769 5769 5770 5770 5771 5771 5771
5630 5634 5637 5640 5643 5647 5649 5651 5655 5657 5660 5663 5665 5668 5669 5670 5671 5670 5671 5672 5671 5676 5684 5684 5680 5672 5674 5689 5702 5710 5710 5706 5711 5718 5718 5718 5718 5719 5721 5721 5721 5723 5725 5726 5726 5728 5729 5731 5733 5734 5735 5736 5737 5738 5739 5739 5740 5742 5744 5745 5746 5747 5746 5746 5746 5747 5749 5750 5750 5751 5752 5753 5754 5755 5757 5758 5760 5761 5761 5761 5761 5762 5762 5762 5763 5763
5628 5631 5634 5638 5642 5645 5646 5648 5651 5653 5655 5658 5660 5662 5662 5665 5666 5665 5668 5668 5667 5673 5677 5676 5670 5664 5674 5689 5696 5702 5702 5698 5705 5709 5706 5708 5711 5712 5713 5712 5715 5718 5718 5718 5719 5720 5720 5722 5724 5725 5727 5728 5728 5729 5730 5732 5733 5735 5736 5737 5738 5739 5738 5738 5739 5741 5742 5743 5744 5744 5745 5746 5746 5747 5749 5750 5752 5752 5753 5753 5754 5754 5754 5755 5755 5755
5625 5628 5632 5635 5638 5641 5643 5644 5646 5647 5649 5653 5656 5655 5656 5660 5662 5661 5662 5663 5665 5667 5666 5665 5663 5663 5675 5684 5685 5692 5696 5694 5696 5697 5695 5698 5701 5702 5705 5709 5711 5712 5712 5712 5712 5713 5714 5715 5716 5718 5720 5721 5721 5722 5722 5723 5725 5726 5727 5728 5729 5730 5730 5731 5732 5733 5734 5735 5736 5736 5737 5738 5738 5739 5740 5741 5742 5743 5744 5745 5745 5747 5747 5748 5747 5747
5622 5626 5629 5631 5634 5637 5638 5639 5640 5642 5644 5648 5649 5650 5653 5657 5658 5655 5656 5659 5660 5656 5655 5658 5660 5663 5671 5674 5675 5684 5690 5689 5686 5685 5686 5688 5692 5694 5699 5703 5704 5704 5704 5705 5706 5706 5707 5708 5709 5710 5712 5713 5715 5716 5716 5716 5716 5717 5718 5719 5720 5721 5722 5722 5723 5725 5725 5726 5726 5727 5728 5729 5729 5730 5731 5732 5733 5733 5734 5735 5736 5738 5739 5739 5740 5740
5620 5624 5626 5628 5631 5632 5634 5634 5635 5637 5639 5641 5644 5648 5650 5650 5651 5651 5650 5653 5653 5647 5648 5653 5655 5659 5663 5664 5668 5676 5682 5682 5679 5677 5677 5680 5685 5687 5688 5691 5694 5695 5696 5696 5698 5699 5699 5700 5701 5702 5703 5704 5706 5708 5709 5710 5710 5710 5710 5711 5711 5711 5712 5713 5714 5715 5715 5716 5717 5718 5719 5720 5720 5721 5722 5723 5724 5724 5725 5726 5727 5727 5729 5730 5730 5731
5617 5620 5622 5625 5627 5628 5629 5630 5631 5634 5635 5637 5640 5644 5644 5642 5644 5646 5644 5645 5646 5642 5643 5647 5648 5651 5654 5657 5662 5669 5673 5674 5671 5670 5671 5672 5675 5677 5678 5680 5682 5685 5687 5688 5689 5690 5691 5691 5691 5692 5694 5695 5696 5697 5699 5702 5703 5703 5703 5703 5703 5703 5703 5704 5704 5705 5706 5707 5708 5709 5710 5711 5711 5712 5713 5713 5714 5715 5716 5717 5717 5718 5719 5719 5720 5721
5613 5616 5618 5621 5623 5624 5625 5627 5630 5632 5632 5633 5636 5638 5638 5638 5640 5640 5639 5640 5641 5638 5638 5640 5641 5643 5648 5653 5658 5661 5663 5663 5662 5664 5665 5665 5666 5669 5670 5670 5671 5674 5676 5678 5680 5682 5683 5683 5683 5684 5684 5685 5687 5688 5689 5691 5694 5695 5696 5696 5695 5695 5695 5695 5696 5697 5697 5698 5699 5700 5701 5701 5702 5702 5703 5704 5705 5706 5706 5707 5707 5708 5709 5709 5710 5711
5610 5612 5615 5617 5618 5620 5622 5624 5626 5627 5627 5629 5632 5633 5633 5635 5636 5635 5633 5635 5636 5633 5633 5634 5633 5637 5643 5647 5651 5653 5654 5654 5655 5658 5659 5658 5659 5660 5661 5662 5664 5665 5666 5668 5670 5671 5673 5674 5675 5675 5675 5675 5676 5677 5679 5680 5682 5685 5686 5687 5686 5686 5686 5686 5687 5688 5689 5690 5691 5692 5693 5693 5693 5693 5693 5694 5695 5695 5696 5696 5697 5698 5699 5701 5701 5701
5607 5608 5611 5613 5615 5617 5619 5620 5622 5622 5622 5624 5626 5627 5628 5630 5631 5628 5626 5629 5631 5628 5628 5627 5625 5631 5638 5638 5640 5645 5647 5648 5648 5649 5651 5652 5652 5652 5653 5654 5655 5656 5657 5658 5660 5661 5662 5663 5664 5664 5665 5665 5665 5665 5667 5669 5671 5672 5674 5675 5676 5676 5676 5676 5677 5678 5680 5681 5683 5684 5684 5684 5684 5684 5684 5684 5685 5685 5686 5687 5688 5688 5689 5691 5692 5692
5605 5606 5608 5610 5612 5615 5615 5616 5617 5617 5618 5619 5620 5621 5623 5623 5623 5622 5620 5623 5624 5622 5623 5622 5617 5621 5629 5631 5632 5636 5640 5642 5642 5641 5643 5646 5645 5645 5645 5645 5646 5647 5648 5649 5651 5652 5652 5653 5653 5653 5654 5654 5654 5655 5656 5657 5659 5660 5661 5662 5663 5665 5666 5666 5667 5668 5670 5672 5674 5674 5674 5675 5675 5674 5675 5675 5675 5676 5677 5677 5678 5679 5680 5682 5682 5682
5603 5604 5605 5607 5609 5611 5611 5611 5613 5613 5613 5613 5614 5616 5617 5616 5617 5617 5615 5616 5616 5614 5618 5616 5608 5612 5622 5625 5626 5628 5630 5633 5634 5634 5635 5637 5638 5638 5637 5636 5636 5636 5637 5639 5641 5642 5642 5642 5643 5643 5643 5643 5644 5644 5645 5645 5646 5647 5648 5649 5651 5653 5655 5656 5657 5659 5660 5662 5663 5664 5664 5665 5664 5664 5664 5665 5666 5667 5668 5668 5669 5669 5669 5671 5672 5672
5599 5600 5602 5603 5604 5606 5607 5608 5608 5608 5608 5608 5608 5610 5610 5611 5611 5610 5610 5610 5606 5606 5612 5608 5601 5608 5618 5619 5620 5622 5622 5624 5626 5628 5628 5629 5630 5630 5629 5628 5627 5627 5627 5629 5630 5630 5631 5631 5632 5633 5633 5633 5633 5633 5633 5633 5633 5634 5635 5637 5640 5642 5644 5646 5647 5649 5651 5652 5653 5654 5655 5654 5653 5652 5653 5654 5656 5658 5658 5659 5659 5659 5659 5660 5661 5662
5596 5597 5598 5599 5599 5601 5603 5603 5603 5603 5602 5603 5604 5605 5604 5605 5604 5602 5603 5602 5597 5600 5605 5600 5596 5605 5613 5615 5616 5617 5616 5616 5619 5620 5621 5621 5622 5622 5621 5620 5619 5619 5619 5619 5619 5619 5619 5619 5620 5621 5621 5621 5622 5623 5622 5622 5623 5625 5626 5629 5630 5631 5632 5635 5637 5638 5641 5642 5643 5644 5643 5642 5642 5643 5644 5645 5646 5647 5647 5647 5648 5648 5648 5649 5649 5651
5592 5593 5594 5594 5595 5597 5598 5598 5598 5597 5597 5598 5599 5599 5599 5598 5597 5596 5594 5593 5595 5596 5594 5594 5596 5600 5606 5612 5612 5611 5610 5610 5611 5612 5612 5612 5612 5611 5611 5610 5610 5609 5608 5608 5609 5609 5609 5609 5609 5609 5610 5611 5612 5613 5614 5615 5617 5619 5621 5623 5624 5623 5622 5624 5626 5627 5629 5630 5631 5631 5631 5631 5633 5634 5635 5636 5636 5636 5636 5636 5636 5637 5637 5637 5638 5640
5589 5590 5589 5590 5592 5593 5594 5594 5593 5591 5591 5592 5591 5592 5592 5592 5591 5589 5587 5590 5595 5588 5582 5593 5598 5592 5595 5605 5606 5605 5605 5604 5603 5604 5603 5602 5601 5601 5600 5600 5599 5598 5597 5597 5597 5598 5598 5598 5599 5600 5601 5602 5603 5603 5604 5607 5610 5613 5614 5615 5616 5615 5614 5616 5616 5617 5618 5618 5619 5620 5621 5622 5623 5624 5624 5624 5625 5625 5625 5625 5625 5625 5625 5625 5626 5627
5586 5586 5586 5587 5589 5590 5590 5590 5587 5585 5584 5584 5585 5586 5588 5587 5585 5585 5585 5588 5589 5579 5576 5588 5591 5583 5585 5593 5595 5598 5600 5597 5595 5593 5591 5590 5590 5590 5589 5587 5585 5585 5586 5586 5586 5586 5587 5587 5589 5592 5593 5592 5593 5593 5595 5598 5601 5603 5604 5605 5606 5606 5607 5607 5607 5606 5607 5608 5608 5609 5611 5612 5613 5613 5613 5613 5613 5613 5613 5613 5613 5613 5614 5614 5614 5615
5582 5583 5584 5584 5585 5586 5586 5583 5580 5579 5578 5578 5580 5581 5582 5583 5583 5582 5582 5584 5581 5573 5572 5578 5576 5573 5578 5583 5585 5588 5588 5584 5581 5579 5577 5577 5577 5577 5576 5574 5574 5574 5575 5576 5576 5577 5577 5578 5579 5581 5582 5582 5582 5584 5587 5589 5590 5591 5592 5594 5595 5596 5597 5597 5597 5596 5596 5597 5598 5599 5600 5601 5602 5602 5602 5602 5602 5602 5602 5602 5602 5603 5603 5603 5603 5603
5578 5579 5579 5579 5580 5581 5579 5576 5574 5573 5572 5572 5575 5577 5579 5579 5579 5577 5576 5575 5571 5566 5566 5567 5561 5562 5572 5576 5573 5572 5570 5567 5566 5566 5567 5567 5567 5566 5565 5564 5565 5566 5566 5567 5568 5569 5569 5569 5569 5570 5571 5572 5573 5574 5576 5578 5579 5579 5580 5582 5584 5584 5584 5584 5585 5586 5586 5587 5588 5588 5589 5590 5591 5591 5591 5591 5592 5592 5592 5592 5592 5592 5592 5592 5592 5591
5573 5573 5574 5574 5573 5572 5571 5571 5570 5569 5568 5567 5570 5573 5574 5572 5569 5568 5566 5564 5562 5559 5558 5556 5552 5554 5564 5565 5559 5557 5557 5556 5558 5559 5559 5558 5558 5558 5557 5557 5558 5560 5561 5560 5559 5559 5559 5560 5560 5562 5563 5563 5563 5564 5565 5566 5567 5568 5569 5570 5571 5572 5571 5571 5572 5574 5575 5576 5577 5577 5578 5580 5580 5581 5580 5580 5580 5581 5582 5582 5582 5582 5582 5581 5581 5581
5569 5569 5570 5568 5565 5564 5564 5567 5568 5566 5563 5562 5563 5564 5564 5562 5559 5558 5557 5558 5557 5553 5548 5545 5545 5548 5551 5551 5549 5550 5550 5551 5552 5550 5547 5547 5549 5549 5548 5547 5548 5550 5550 5550 5549 5549 5549 5550 5551 5552 5553 5554 5555 5555 5555 5556 5556 5557 5557 5557 5558 5559 5560 5560 5560 5561 5563 5564 5565 5565 5566 5567 5569 5569 5569 5569 5569 5570 5570 5571 5572 5572 5571 5571 5571 5571
5566 5566 5565 5563 5561 5559 5559 5562 5563 5560 5558 5558 5558 5557 5555 5553 5551 5550 5550 5551 5549 5544 5539 5537 5537 5539 5539 5540 5541 5541 5541 5543 5543 5539 5535 5535 5537 5537 5537 5535 5535 5535 5536 5537 5538 5538 5539 5540 5541 5542 5542 5544 5545 5545 5545 5546 5546 5546 5546 5546 5546 5547 5548 5548 5549 5549 5551 5552 5553 5553 5553 5554 5555 5557 5558 5559 5558 5558 5559 5559 5560 5560 5560 5560 5560 5561
5563 5563 5561 5559 5558 5555 5556 5557 5555 5554 5556 5555 5552 5550 5548 5546 5545 5543 5543 5542 5539 5535 5533 5531 5529 5529 5530 5531 5530 5529 5531 5533 5532 5527 5525 5525 5525 5524 5525 5524 5524 5524 5525 5525 5526 5525 5526 5528 5529 5530 5531 5531 5532 5532 5533 5533 5534 5534 5535 5535 5535 5535 5536 5537 5538 5538 5539 5541 5542 5542 5542 5542 5543 5545 5546 5547 5547 5547 5547 5548 5548 5548 5548 5548 5549 5550
5559 5558 5556 5555 5554 5551 5552 5552 5548 5547 5551 5549 5544 5544 5544 5542 5539 5537 5535 5532 5529 5527 5526 5523 5522 5521 5521 5519 5519 5518 5519 5521 5520 5516 5515 5515 5513 5512 5513 5513 5513 5513 5513 5513 5513 5513 5513 5514 5515 5516 5517 5518 5518 5518 5518 5518 5519 5520 5521 5522 5522 5523 5523 5524 5525 5527 5528 5529 5530 5531 5531 5532 5533 5533 5534 5535 5535 5535 5536 5536 5536 5536 5536 5537 5538 5538
5554 5553 5551 5550 5548 5547 5546 5545 5541 5540 5540 5539 5539 5540 5539 5536 5532 5528 5524 5522 5521 5520 5518 5516 5514 5513 5511 5510 5508 5507 5506 5508 5509 5507 5504 5502 5501 5499 5500 5500 5500 5500 5499 5500 5501 5500 5500 5501 5502 5502 5503 5504 5504 5503 5503 5503 5503 5504 5505 5506 5508 5509 5510 5511 5512 5513 5515 5516 5516 5517 5518 5518 5520 5521 5522 5522 5523 5523 5524 5524 5525 5525 5524 5525 5526 5527
5548 5547 5546 5543 5542 5542 5539 5536 5534 5532 5529 5530 5532 5532 5531 5528 5523 5518 5513 5512 5513 5513 5510 5507 5505 5503 5501 5500 5498 5497 5495 5494 5497 5499 5496 5491 5488 5487 5487 5487 5486 5486 5486 5486 5487 5488 5487 5487 5488 5488 5489 5489 5489 5489 5490 5489 5489 5489 5490 5491 5493 5495 5496 5497 5498 5499 5500 5501 5502 5503 5504 5504 5505 5506 5507 5508 5508 5509 5510 5511 5512 5512 5512 5513 5514 5515
5543 5542 5541 5538 5536 5536 5533 5528 5525 5523 5522 5523 5523 5523 5523 5520 5515 5510 5505 5501 5502 5503 5500 5496 5493 5490 5489 5488 5486 5486 5484 5481 5483 5489 5488 5482 5479 5477 5475 5474 5474 5473 5473 5473 5473 5474 5475 5474 5475 5476 5476 5476 5476 5476 5476 5476 5476 5477 5477 5477 5479 5481 5482 5483 5484 5485 5486 5486 5488 5489 5490 5490 5490 5491 5492 5493 5494 5494 5495 5496 5497 5498 5498 5499 5500 5502
5539 5537 5535 5533 5531 5530 5526 5521 5518 5517 5516 5514 5513 5514 5514 5510 5505 5500 5494 5491 5493 5492 5489 5484 5480 5477 5477 5475 5473 5473 5471 5468 5469 5475 5476 5472 5470 5467 5464 5462 5463 5462 5461 5461 5460 5461 5462 5463 5462 5463 5464 5464 5464 5464 5463 5463 5464 5465 5465 5466 5466 5467 5468 5469 5470 5472 5473 5474 5475 5476 5476 5477 5478 5478 5479 5480 5481 5481 5482 5483 5484 5484 5484 5484 5485 5486
5534 5532 5529 5527 5525 5523 5518 5513 5510 5510 5509 5508 5505 5503 5501 5499 5494 5487 5481 5481 5482 5481 5478 5474 5468 5465 5464 5462 5460 5459 5458 5455 5454 5458 5461 5460 5458 5457 5454 5451 5452 5452 5451 5450 5449 5448 5449 5450 5450 5451 5451 5451 5452 5452 5451 5451 5451 5452 5453 5454 5454 5455 5456 5456 5457 5458 5460 5461 5462 5463 5463 5464 5465 5466 5467 5468 5468 5469 5469 5470 5471 5471 5471 5471 5472 5473
5528 5526 5524 5522 5518 5515 5512 5507 5503 5502 5503 5501 5496 5492 5488 5484 5479 5474 5471 5470 5468 5467 5466 5462 5456 5453 5450 5448 5447 5445 5444 5444 5443 5442 5445 5445 5444 5444 5443 5440 5439 5440 5439 5439 5438 5437 5437 5438 5438 5438 5438 5439 5439 5440 5440 5440 5440 5440 5441 5442 5442 5443 5444 5445 5446 5447 5448 5448 5449 5449 5450 5451 5451 5453 5454 5455 5456 5457 5457 5458 5458 5459 5459 5459 5459 5461
5521 5518 5517 5515 5511 5508 5506 5501 5496 5496 5496 5490 5484 5481 5478 5473 5465 5459 5457 5457 5455 5453 5451 5448 5445 5441 5438 5435 5434 5431 5431 5432 5432 5430 5430 5431 5430 5430 5429 5428 5427 5426 5426 5426 5426 5425 5425 5427 5427 5427 5427 5428 5427 5428 5428 5429 5429 5430 5430 5430 5431 5432 5433 5433 5434 5435 5436 5436 5437 5437 5437 5438 5439 5440 5441 5442 5443 5444 5444 5445 5446 5446 5447 5447 5447 5448
5514 5511 5508 5505 5501 5499 5498 5493 5490 5490 5488 5479 5471 5468 5466 5462 5455 5448 5444 5442 5442 5440 5437 5434 5432 5430 5425 5421 5419 5418 5417 5418 5418 5417 5416 5417 5416 5415 5414 5414 5413 5413 5413 5413 5413 5413 5413 5414 5415 5416 5416 5417 5417 5417 5417 5418 5418 5419 5419 5420 5420 5421 5422 5423 5423 5424 5425 5426 5426 5426 5427 5427 5428 5428 5429 5430 5431 5431 5432 5432 5433 5433 5434 5435 5435 5436
5506 5502 5498 5495 5493 5490 5486 5483 5482 5482 5477 5469 5462 5458 5453 5449 5444 5437 5431 5428 5426 5424 5421 5418 5417 5416 5413 5408 5404 5403 5403 5404 5404 5403 5402 5402 5402 5401 5399 5399 5399 5400 5400 5400 5401 5401 5401 5401 5402 5404 5404 5406 5406 5406 5407 5408 5408 5409 5409 5410 5410 5411 5412 5413 5413 5414 5414 5415 5416 5416 5417 5418 5418 5418 5419 5419 5420 5421 5421 5421 5422 5422 5422 5423 5423 5423
5500 5494 5487 5484 5484 5480 5475 5473 5472 5470 5465 5459 5453 5449 5443 5438 5432 5425 5419 5416 5412 5409 5405 5401 5399 5399 5397 5393 5389 5388 5389 5388 5387 5387 5387 5386 5387 5387 5386 5386 5386 5387 5387 5388 5388 5389 5389 5389 5390 5391 5392 5394 5395 5396 5396 5397 5398 5399 5400 5400 5400 5401 5402 5403 5404 5404 5405 5405 5406 5407 5408 5408 5408 5409 5409 5410 5410 5411 5411 5411 5411 5411 5412 5412 5412 5412
5491 5485 5479 5476 5473 5468 5465 5464 5462 5458 5454 5448 5442 5438 5434 5427 5421 5415 5408 5403 5399 5395 5392 5387 5384 5382 5380 5378 5375 5373 5373 5373 5372 5371 5371 5370 5371 5372 5372 5373 5373 5374 5374 5374 5376 5377 5377 5377 5378 5379 5380 5382 5383 5384 5385 5386 5387 5388 5389 5389 5390 5391 5392 5393 5394 5395 5395 5396 5397 5398 5398 5399 5399 5400 5400 5400 5401 5401 5401 5401 5401 5401 5402 5402 5403 5402
5479 5474 5471 5468 5463 5457 5455 5454 5450 5446 5442 5436 5428 5424 5419 5413 5408 5403 5396 5389 5384 5380 5377 5374 5371 5367 5365 5363 5361 5358 5358 5360 5359 5356 5355 5355 5355 5356 5357 5358 5359 5360 5360 5361 5363 5364 5365 5366 5367 5367 5369 5370 5371 5372 5374 5375 5376 5377 5378 5379 5380 5380 5382 5383 5384 5385 5386 5386 5387 5388 5389 5390 5390 5391 5391 5391 5391 5392 5392 5392 5392 5392 5392 5393 5393 5394
5466 5462 5459 5455 5451 5449 5446 5442 5437 5430 5428 5425 5418 5410 5405 5398 5391 5386 5381 5375 5370 5366 5363 5360 5358 5354 5351 5349 5348 5344 5343 5346 5346 5342 5340 5341 5342 5342 5343 5344 5344 5345 5347 5348 5349 5350 5352 5354 5355 5355 5357 5358 5359 5361 5362 5363 5364 5366 5367 5368 5369 5370 5371 5372 5374 5375 5376 5377 5378 5379 5380 5381 5381 5382 5382 5382 5382 5382 5383 5383 5384 5384 5383 5383 5384 5384
5454 5450 5447 5441 5438 5437 5434 5429 5422 5413 5409 5409 5405 5397 5391 5384 5376 5370 5366 5361 5356 5353 5349 5346 5345 5343 5341 5338 5336 5332 5331 5332 5332 5330 5329 5329 5329 5329 5330 5331 5331 5332 5333 5334 5335 5337 5338 5340 5342 5343 5344 5346 5347 5349 5350 5352 5353 5354 5356 5358 5359 5360 5361 5362 5363 5364 5365 5367 5368 5369 5370 5371 5372 5373 5374 5374 5374 5374 5374 5374 5375 5376 5375 5375 5375 5375
5443 5439 5435 5430 5426 5423 5418 5413 5406 5397 5391 5389 5385 5379 5374 5368 5361 5356 5353 5348 5343 5340 5336 5333 5332 5331 5330 5329 5325 5322 5321 5321 5321 5319 5319 5318 5318 5318 5318 5318 5318 5319 5320 5321 5322 5324 5325 5327 5329 5330 5331 5333 5335 5336 5338 5340 5341 5343 5345 5347 5349 5350 5351 5352 5353 5354 5355 5356 5358 5359 5360 5361 5362 5363 5364 5365 5365 5366 5366 5365 5365 5366 5367 5367 5367 5366